Wind_Speed
13 11 10 10 10 9 7 6 4 3 3 2 1 1 2 3 4 5 5 5 6 6 5 5 4 4 4 5 5 6 6 6 6 7 7 7 6 6 7 7 8 8 8 8
14 13 13 13 11 10 8 7 6 5 5 4 3 3 3 3 5 5 5 6 7 7 6 5 4 4 5 6 6 6 7 7 7 7 7 7 7 7 8 8 9 9 9 9
17 16 16 14 13 11 9 9 9 9 7 5 4 4 5 4 5 5 6 6 7 7 7 6 4 4 6 7 7 7 7 7 7 7 7 7 8 8 9 10 10 10 10 10
19 18 17 16 14 12 11 12 11 10 8 7 7 5 7 6 6 6 7 7 7 7 7 7 6 6 7 7 7 8 7 7 7 7 8 8 9 9 10 10 11 10 10 10
19 19 18 17 16 14 13 13 12 12 10 9 8 7 8 8 8 8 8 8 9 9 8 8 7 8 8 8 9 9 9 9 9 9 8 9 10 10 11 12 12 12 12 12
21 20 20 19 18 16 15 13 13 13 12 12 11 9 9 10 10 10 10 10 10 10 9 9 9 10 11 10 10 10 10 10 10 10 10 11 11 12 12 12 13 14 14 13
21 21 20 20 19 18 17 14 13 12 13 13 13 12 12 11 12 12 12 11 11 11 11 11 11 12 12 12 12 12 12 12 12 12 13 13 13 14 14 14 14 15 15 15
20 21 21 20 20 19 18 16 15 14 13 13 15 15 13 14 13 14 13 13 13 13 13 13 13 14 14 14 15 14 15 15 15 15 15 16 16 16 16 15 16 17 17 17
21 21 21 21 21 21 19 19 17 16 16 15 15 16 15 15 15 14 14 14 15 15 15 15 15 16 16 17 17 18 18 18 18 17 18 18 18 18 18 18 18 18 19 19
23 23 23 23 22 22 22 20 19 18 18 17 17 17 17 16 16 16 16 16 17 17 17 17 17 18 19 19 20 21 22 20 19 20 19 20 20 20 20 20 20 20 21 22
24 24 24 24 24 23 23 23 22 21 20 19 18 19 20 19 18 18 18 19 19 20 20 20 20 21 21 22 22 23 23 23 22 22 21 21 21 22 22 22 22 22 23 24
25 25 25 25 25 26 25 24 24 23 23 23 22 21 22 21 19 19 20 21 22 22 23 23 23 23 23 23 23 24 24 24 24 24 24 23 24 24 24 24 25 25 25 25
26 26 25 25 25 26 27 26 26 25 24 24 22 22 23 22 21 21 21 23 24 24 24 24 24 24 25 25 25 25 26 26 26 26 26 26 26 26 25 26 27 27 26 24
26 27 26 25 23 24 26 27 27 26 24 24 24 23 24 25 24 23 23 23 25 26 26 26 25 25 26 27 27 26 26 27 27 27 27 28 27 27 27 28 28 27 25 24
26 27 27 27 27 27 27 27 27 27 27 27 26 26 25 27 26 26 26 26 26 26 27 27 27 27 27 28 27 27 27 27 27 28 28 29 28 28 28 28 28 27 26 24
26 26 26 27 27 28 28 28 28 28 28 28 28 27 27 28 28 27 27 27 27 27 28 28 28 28 28 28 28 28 28 28 28 28 28 29 29 29 28 28 29 28 27 26
27 27 27 26 26 28 29 28 28 29 29 28 28 28 28 28 28 27 27 28 28 28 29 29 29 30 29 28 28 28 28 28 28 29 29 29 30 30 30 30 28 29 29 29
27 27 27 26 27 30 28 28 28 28 28 28 28 28 28 28 28 28 28 29 29 29 30 30 30 30 30 29 29 29 29 30 30 29 29 29 29 29 30 29 29 30 30 29
27 27 27 27 27 28 28 29 28 28 29 28 28 28 28 28 28 29 30 30 30 30 30 30 31 31 31 31 31 31 31 31 30 30 29 29 29 29 30 30 30 30 29 29
28 28 28 28 27 27 28 28 27 28 30 29 29 28 28 28 29 30 30 30 31 31 31 31 32 32 32 32 32 33 32 31 31 31 31 30 30 31 31 30 30 30 30 31
29 30 30 29 29 28 30 28 27 28 29 29 29 29 30 30 30 30 31 31 32 31 31 32 32 33 33 33 33 34 34 32 32 32 32 32 31 31 31 31 31 32 32 32
29 30 31 30 29 30 30 29 29 29 30 30 30 30 31 31 31 32 32 33 33 33 33 33 33 33 33 34 34 34 34 33 32 32 32 33 33 33 33 33 33 33 33 34
29 29 29 30 30 30 30 30 30 30 30 30 31 32 32 33 33 33 33 33 33 34 33 33 34 35 35 35 34 34 35 35 34 33 33 34 34 34 34 34 35 35 35 35
29 28 29 29 30 31 30 30 31 30 31 31 32 32 33 33 32 33 33 33 34 34 34 34 34 35 35 35 35 35 35 36 35 34 34 34 35 35 35 35 35 36 36 36
28 29 29 29 30 31 31 30 30 30 31 31 32 33 33 32 32 32 33 33 33 33 33 33 33 33 34 35 34 33 34 34 34 34 34 34 34 35 35 35 35 36 36 36
28 29 29 29 31 30 30 31 31 31 31 31 31 32 32 32 32 32 33 33 32 32 32 32 32 33 33 34 33 33 34 34 35 35 35 35 36 35 35 35 35 35 35 35
Wind_Direction
216 218 220 221 218 217 214 210 223 230 234 248 255 310 351 356 359 0 360 2 6 2 0 6 17 23 19 13 11 12 14 15 13 14 15 14 10 4 357 357 357 356 355 353
221 225 225 225 225 225 226 228 238 244 251 255 259 277 301 319 328 332 339 342 348 353 352 352 357 4 -0 354 355 356 357 359 357 358 1 360 0 356 350 350 350 350 348 346
222 227 226 226 227 228 233 237 245 250 256 256 260 283 287 299 309 314 323 330 334 335 334 334 335 340 344 342 340 337 338 340 340 341 344 347 347 344 343 342 338 338 339 343
225 227 226 228 229 230 240 246 248 254 261 266 264 273 282 285 296 300 309 314 318 322 323 325 322 326 327 326 327 324 320 321 324 326 329 332 332 333 334 332 333 331 330 330
228 229 228 228 232 234 236 244 250 256 257 263 267 266 268 276 285 291 298 304 306 309 311 312 311 313 312 310 311 313 313 314 316 316 318 321 322 325 328 327 326 325 323 321
229 230 230 232 233 235 239 246 255 260 260 263 264 262 262 271 279 283 291 295 296 300 308 309 307 305 304 302 301 303 306 309 312 311 307 308 309 311 314 316 316 315 315 312
233 234 235 234 235 238 241 246 256 260 260 264 266 265 262 270 277 280 284 288 289 292 296 299 299 299 300 298 296 297 299 299 299 300 299 301 301 303 305 308 309 311 312 308
235 238 236 235 235 239 241 243 246 252 258 264 271 269 268 274 277 280 280 281 283 287 289 290 292 294 293 292 291 288 290 291 291 292 293 295 296 297 298 300 305 309 308 306
232 236 239 236 237 239 243 244 245 252 256 258 262 270 276 278 277 277 277 277 281 283 284 284 288 290 288 288 287 285 283 287 287 286 288 290 292 291 294 296 300 305 304 302
233 235 238 239 240 242 244 246 248 249 254 259 266 272 274 277 276 275 273 273 278 280 280 282 285 285 284 284 284 287 284 284 284 284 286 287 288 290 293 295 297 299 301 300
233 235 239 241 241 245 247 248 251 253 253 258 265 270 272 274 273 270 268 270 274 278 279 281 283 283 282 283 283 286 289 286 285 286 286 287 286 287 289 291 294 297 298 299
236 237 239 243 244 244 247 249 252 255 259 262 263 268 271 272 270 269 268 268 272 276 277 279 281 282 282 283 283 285 287 288 287 286 285 286 285 287 289 291 292 293 295 293
239 239 241 245 248 246 247 249 252 255 259 263 265 269 271 271 270 270 270 270 272 274 277 279 278 280 282 282 283 284 286 287 288 286 284 284 285 286 287 290 291 291 291 289
240 241 240 240 242 247 250 251 253 254 257 261 266 266 268 270 271 270 270 271 273 274 277 278 278 279 280 281 282 283 284 285 285 285 285 284 283 284 285 287 289 290 288 287
241 241 242 242 242 245 249 251 254 257 258 259 262 266 269 271 273 271 270 270 272 275 276 277 277 278 278 279 281 282 283 284 284 284 284 286 285 284 284 285 287 289 289 287
243 244 244 245 246 248 250 252 255 258 260 262 263 265 267 271 272 272 271 270 271 273 276 277 278 278 278 277 279 282 284 285 284 285 286 285 285 285 283 285 287 289 287 286
244 246 246 246 248 250 252 254 256 258 260 262 264 266 268 270 271 271 270 270 270 271 273 275 277 276 276 277 279 281 283 286 288 289 288 286 287 286 285 285 286 290 288 286
245 245 247 249 250 252 255 257 257 259 260 262 263 264 266 268 269 270 269 270 271 273 274 276 277 277 279 281 281 282 283 285 287 287 287 285 284 285 284 285 288 290 290 288
245 247 249 251 253 257 257 258 259 260 260 261 262 264 266 268 270 270 270 271 272 273 274 276 276 277 279 280 282 281 283 284 285 286 286 284 282 284 286 287 289 290 290 290
246 248 250 252 253 256 259 259 259 260 261 262 263 264 266 269 270 272 273 273 272 273 273 274 275 276 277 279 280 281 281 281 283 284 285 285 285 285 286 286 288 288 290 290
247 248 250 254 255 256 258 260 260 260 262 264 264 265 267 269 271 273 274 275 274 275 276 276 278 277 277 278 280 280 281 280 281 282 283 284 285 285 286 287 286 287 288 290
248 249 251 252 254 255 259 261 261 263 265 267 268 268 269 271 272 273 275 275 276 276 276 276 277 277 277 278 279 280 280 280 281 281 282 283 283 284 285 285 285 286 289 290
250 250 252 253 255 258 259 261 262 262 264 265 267 269 271 272 273 274 275 275 276 278 278 278 278 277 278 279 279 280 281 281 281 281 282 283 283 283 284 285 286 287 288 289
253 253 253 256 257 258 260 263 264 263 264 265 267 269 271 272 272 273 274 276 278 277 277 278 280 280 279 279 280 281 281 283 282 281 282 284 284 284 285 286 287 287 287 288
254 254 256 258 259 260 261 263 265 265 265 266 267 269 270 271 272 273 274 276 278 277 277 279 281 281 281 282 282 282 283 282 282 282 283 284 284 284 285 286 286 287 287 286
256 257 257 258 259 259 261 263 264 265 267 268 269 269 271 272 273 273 275 276 278 277 277 279 280 281 281 282 283 284 283 283 283 283 283 283 282 283 285 286 286 287 287 285
Height
5925 5928 5930 5931 5932 5933 5934 5935 5936 5935 5934 5934 5933 5933 5932 5931 5930 5929 5927 5926 5925 5923 5921 5920 5919 5918 5917 5916 5915 5914 5912 5911 5910 5909 5907 5906 5905 5904 5902 5901 5899 5898 5896 5895
5924 5926 5927 5928 5929 5930 5932 5933 5934 5934 5933 5933 5933 5933 5932 5931 5929 5928 5927 5926 5925 5923 5921 5920 5919 5918 5917 5916 5915 5914 5912 5911 5910 5909 5907 5906 5905 5903 5902 5900 5899 5897 5896 5894
5921 5923 5923 5925 5927 5928 5930 5931 5932 5932 5932 5932 5932 5932 5931 5930 5929 5928 5927 5926 5924 5923 5921 5920 5918 5918 5917 5916 5914 5913 5912 5911 5909 5908 5907 5906 5905 5903 5901 5900 5898 5896 5895 5893
5917 5919 5920 5922 5924 5926 5928 5928 5929 5929 5930 5931 5932 5932 5930 5929 5928 5927 5926 5925 5923 5922 5921 5919 5918 5917 5916 5915 5914 5912 5911 5910 5909 5907 5906 5905 5904 5902 5900 5898 5897 5895 5894 5892
5914 5915 5917 5919 5921 5923 5924 5925 5926 5926 5927 5929 5929 5930 5930 5927 5927 5926 5925 5924 5922 5921 5920 5919 5917 5916 5915 5914 5913 5911 5910 5909 5907 5906 5905 5904 5902 5901 5899 5897 5895 5894 5892 5890
5910 5911 5913 5915 5917 5919 5920 5922 5923 5924 5925 5927 5927 5927 5928 5926 5925 5924 5923 5922 5921 5920 5918 5917 5916 5915 5913 5912 5911 5910 5909 5907 5906 5904 5903 5902 5900 5898 5897 5895 5893 5892 5890 5888
5906 5908 5909 5911 5914 5915 5917 5920 5922 5923 5924 5924 5923 5923 5924 5923 5922 5921 5920 5919 5918 5917 5916 5915 5914 5913 5912 5911 5909 5908 5907 5905 5904 5902 5900 5899 5898 5896 5894 5892 5891 5889 5887 5886
5903 5905 5906 5908 5910 5912 5914 5917 5920 5921 5922 5922 5919 5919 5920 5919 5918 5917 5917 5916 5916 5915 5914 5913 5911 5910 5909 5908 5907 5905 5904 5903 5901 5899 5898 5896 5894 5893 5891 5890 5888 5886 5884 5882
5900 5902 5902 5904 5906 5908 5909 5911 5914 5916 5916 5918 5917 5916 5915 5914 5914 5914 5913 5913 5912 5911 5910 5909 5908 5907 5906 5905 5903 5902 5900 5899 5897 5895 5894 5892 5891 5889 5887 5885 5884 5882 5880 5878
5894 5897 5898 5899 5901 5903 5905 5907 5909 5911 5911 5913 5913 5912 5913 5911 5910 5909 5909 5908 5908 5907 5906 5905 5904 5903 5902 5900 5899 5898 5896 5894 5893 5891 5889 5888 5886 5884 5883 5881 5879 5876 5875 5873
5888 5891 5893 5895 5896 5898 5900 5902 5903 5905 5906 5907 5909 5911 5906 5906 5905 5904 5904 5903 5903 5902 5902 5901 5900 5899 5897 5896 5894 5893 5891 5889 5888 5886 5884 5883 5881 5880 5878 5875 5873 5871 5870 5868
5882 5886 5888 5889 5891 5892 5894 5896 5897 5900 5900 5900 5902 5906 5901 5900 5899 5899 5898 5898 5897 5897 5896 5895 5894 5893 5892 5890 5889 5887 5886 5884 5882 5881 5879 5877 5875 5874 5872 5870 5867 5865 5864 5862
5876 5879 5882 5884 5887 5887 5887 5889 5891 5893 5894 5894 5896 5899 5894 5893 5893 5893 5892 5892 5891 5891 5890 5889 5888 5887 5885 5884 5883 5881 5880 5878 5876 5874 5873 5871 5870 5868 5866 5864 5861 5859 5857 5855
5870 5872 5876 5880 5881 5881 5881 5883 5884 5886 5888 5888 5889 5890 5888 5887 5886 5886 5886 5885 5885 5884 5883 5883 5882 5880 5879 5877 5876 5875 5873 5871 5869 5868 5866 5864 5863 5861 5859 5857 5854 5851 5850 5848
5862 5865 5867 5870 5872 5873 5874 5876 5877 5878 5880 5881 5881 5881 5881 5879 5879 5879 5879 5878 5878 5877 5876 5875 5874 5873 5872 5870 5869 5867 5866 5864 5862 5860 5859 5857 5856 5854 5852 5850 5847 5845 5843 5842
5855 5858 5860 5862 5864 5865 5867 5868 5870 5871 5872 5872 5872 5873 5872 5871 5871 5871 5871 5870 5870 5869 5869 5868 5867 5865 5864 5863 5861 5860 5858 5857 5855 5853 5851 5849 5848 5846 5844 5842 5840 5839 5837 5835
5848 5851 5853 5855 5857 5857 5859 5861 5862 5863 5864 5865 5865 5866 5864 5864 5863 5863 5863 5862 5862 5861 5861 5860 5859 5857 5856 5855 5854 5852 5851 5849 5847 5845 5843 5842 5841 5839 5837 5834 5833 5831 5829 5828
5841 5843 5845 5848 5849 5849 5854 5853 5854 5855 5855 5856 5856 5857 5856 5856 5856 5855 5855 5854 5854 5853 5852 5851 5850 5849 5848 5847 5845 5844 5842 5841 5840 5838 5836 5834 5832 5831 5829 5827 5825 5823 5822 5819
5833 5835 5838 5840 5841 5842 5845 5845 5846 5847 5847 5848 5848 5849 5848 5848 5848 5847 5846 5846 5845 5845 5844 5843 5842 5841 5840 5839 5837 5836 5834 5832 5831 5829 5827 5825 5824 5822 5821 5819 5817 5815 5813 5811
5826 5828 5830 5832 5834 5836 5837 5837 5838 5839 5838 5840 5840 5840 5840 5840 5840 5839 5838 5837 5836 5835 5835 5834 5833 5832 5830 5829 5828 5827 5825 5824 5822 5820 5819 5817 5815 5814 5812 5810 5808 5806 5805 5803
5818 5820 5822 5823 5825 5827 5827 5828 5830 5832 5832 5831 5831 5831 5831 5831 5831 5830 5829 5828 5827 5826 5826 5825 5824 5822 5821 5820 5819 5817 5815 5814 5813 5812 5810 5808 5807 5805 5803 5801 5799 5797 5795 5793
5811 5812 5813 5815 5817 5820 5818 5819 5821 5822 5821 5821 5821 5822 5822 5822 5822 5821 5820 5819 5818 5817 5816 5815 5814 5813 5812 5811 5809 5808 5806 5804 5803 5802 5801 5799 5797 5796 5794 5792 5790 5787 5785 5783
5803 5805 5806 5808 5810 5809 5809 5810 5811 5812 5812 5812 5813 5813 5812 5812 5812 5812 5811 5810 5809 5808 5807 5805 5804 5803 5802 5801 5799 5798 5797 5795 5793 5792 5791 5789 5788 5786 5784 5782 5780 5778 5775 5773
5795 5796 5797 5798 5799 5800 5801 5801 5802 5802 5803 5803 5803 5803 5803 5802 5802 5802 5801 5800 5799 5799 5797 5796 5795 5793 5792 5791 5790 5789 5787 5785 5783 5782 5780 5779 5777 5775 5773 5771 5769 5767 5765 5762
5787 5788 5789 5790 5791 5791 5792 5792 5793 5794 5794 5794 5794 5794 5793 5793 5792 5792 5792 5791 5790 5789 5788 5787 5785 5784 5782 5781 5780 5778 5777 5775 5773 5771 5770 5768 5767 5765 5763 5761 5759 5756 5754 5751
5779 5780 5781 5781 5782 5782 5783 5784 5784 5784 5784 5784 5784 5784 5784 5783 5783 5783 5782 5781 5780 5779 5778 5777 5776 5775 5773 5772 5770 5769 5767 5765 5763 5762 5760 5758 5756 5754 5752 5750 5748 5745 5743 5740